(80087) = 2000 SX46 = 1999 KC11

Discovered at Socorro on 1999-05-18 by LINEAR.

Orbit

Orbit type: Main Belt

Note: WebGL enabled browser required.

epoch2023-09-13.0
epoch JD2460200.5
perihelion date2022-10-15.40579
perihelion JD2459867.90579
argument of perihelion (°)16.35482
ascending node (°)248.72507
inclination (°)10.31646
eccentricity0.0761682
perihelion distance (AU)2.9719218
Tisserand w.r.t. Jupiter3.2
ΔV w.r.t. Earth (km/sec)11.1
semimajor axis (AU)3.2169510
mean anomaly (°)56.81354
mean daily motion (°/day)0.17081940
aphelion distance (AU)3.462
period (years)5.77
P-vector [x]-0.09000866
P-vector [y]-0.93264488
P-vector [z]-0.34938800
Q-vector [x]0.98186018
Q-vector [y]-0.14187876
Q-vector [z]0.12578160
absolute magnitude14.35
phase slope0.15
uncertainty0
referenceMPEC 2024-C06
observations used960
oppositions20
arc length (days)8940
first opposition used1999
last opposition used2023
residual rms (arc-secs)0.70
perturbers coarse indicatorM-v
perturbers precise indicator003Ek
first observation date used1999-05-18.0
last observation date used2023-11-08.0
computer nameMPCLINUX
JD of orbit computation2456966.894309
perihelion JD uncertainty (days)3.5293E-04
argument of perihelion uncertainty (°)6.3448E-05
ascending node uncertainty (°)3.4787E-05
inclination uncertainty (°)6.2392E-06
eccentricity uncertainty 5.5104E-08
perihelion distance uncertainty (AU)1.7777E-07
Minimum Orbit Intersection Distances (in AU)
for orbit epoch: 2460200.5, reference: E2024-A34
Mercury2.50879
Venus2.24676
Earth1.95727
Mars1.46224
Jupiter1.59405
Saturn5.59403
Uranus15.2333
Neptune26.4642

Observations

982 total observations over interval: 1999 05 18.29339 – 2023 11 08.099538
These data are available for download (format description).

Date (UT) J2000 RA J2000 Dec Magn Location Ref
1999 05 18.29339 16 03 58.32 -23 06 50.1 18.8   704 – Lincoln Laboratory ETS, New Mexico MPS 5239
1999 05 18.30730 16 03 57.51 -23 06 45.5 18.6   704 – Lincoln Laboratory ETS, New Mexico MPS 5239
1999 05 18.32126 16 03 57.02 -23 06 41.0 18.6   704 – Lincoln Laboratory ETS, New Mexico MPS 5239
1999 05 18.34903 16 03 55.40 -23 06 29.5 19.6   704 – Lincoln Laboratory ETS, New Mexico MPS 5239
1999 05 19.29541 16 03 10.83 -23 01 24.1 18.7   704 – Lincoln Laboratory ETS, New Mexico MPS 5239
1999 05 19.30945 16 03 09.95 -23 01 19.5 19.2   704 – Lincoln Laboratory ETS, New Mexico MPS 5239
1999 05 19.33766 16 03 08.65 -23 01 10.4 19.0   704 – Lincoln Laboratory ETS, New Mexico MPS 5239
1999 05 19.35171 16 03 07.98 -23 01 05.9 19.0   704 – Lincoln Laboratory ETS, New Mexico MPS 5239
1999 06 15.17844 15 43 32.72 -20 29 42.8 18.7   704 – Lincoln Laboratory ETS, New Mexico MPS 34123
1999 06 15.19059 15 43 32.36 -20 29 39.9 18.7   704 – Lincoln Laboratory ETS, New Mexico MPS 34123
1999 06 15.20276 15 43 31.96 -20 29 35.8 19.3   704 – Lincoln Laboratory ETS, New Mexico MPS 34123
1999 06 15.21493 15 43 31.51 -20 29 33.7 19.4   704 – Lincoln Laboratory ETS, New Mexico MPS 34123
1999 06 15.22706 15 43 31.10 -20 29 28.0 19.0   704 – Lincoln Laboratory ETS, New Mexico MPS 34123
2000 08 31.24639 21 56 55.10 +03 41 09.1 19.2   704 – Lincoln Laboratory ETS, New Mexico MPS 34123
2000 08 31.25964 21 56 54.54 +03 41 04.4 19.7   704 – Lincoln Laboratory ETS, New Mexico MPS 34123
2000 08 31.27285 21 56 53.97 +03 41 01.0 19.3   704 – Lincoln Laboratory ETS, New Mexico MPS 34123
2000 08 31.28611 21 56 53.39 +03 40 58.6 19.2   704 – Lincoln Laboratory ETS, New Mexico MPS 34123
2000 08 31.29936 21 56 52.75 +03 40 57.0 19.4   704 – Lincoln Laboratory ETS, New Mexico MPS 34123
2000 09 23.18098 21 44 01.21 +01 44 54.3 18.6   704 – Lincoln Laboratory ETS, New Mexico MPS 19820
2000 09 23.19650 21 44 00.80 +01 44 48.3 19.6   704 – Lincoln Laboratory ETS, New Mexico MPS 19820
2000 09 23.21144 21 44 00.45 +01 44 43.0 19.1   704 – Lincoln Laboratory ETS, New Mexico MPS 19820
2000 09 23.22593 21 44 00.08 +01 44 39.4 18.7   704 – Lincoln Laboratory ETS, New Mexico MPS 19820
2000 09 23.24065 21 43 59.78 +01 44 34.9 18.7   704 – Lincoln Laboratory ETS, New Mexico MPS 19820
2000 09 26.18333 21 42 57.89 +01 29 27.8 19.1   704 – Lincoln Laboratory ETS, New Mexico MPS 19820
2000 09 26.19881 21 42 57.65 +01 29 24.3 19.0   704 – Lincoln Laboratory ETS, New Mexico MPS 19820
2000 09 26.21394 21 42 57.34 +01 29 19.7 18.9   704 – Lincoln Laboratory ETS, New Mexico MPS 19820
2000 09 26.23020 21 42 57.04 +01 29 14.5 19.2   704 – Lincoln Laboratory ETS, New Mexico MPS 19820
2000 09 26.24554 21 42 56.71 +01 29 09.3 19.8   704 – Lincoln Laboratory ETS, New Mexico MPS 19820
2000 10 02.256660 21 41 23.402 +00 59 30.71 19.46 V 645 – Apache Point-Sloan Digital Sky Survey MPS 79576
2000 10 02.260132 21 41 23.358 +00 59 29.72 20.13   645 – Apache Point-Sloan Digital Sky Survey MPS 79576
2001 09 19.34543 03 13 10.23 +24 54 16.9 20.1 R 699 – Lowell Observatory-LONEOS MPS 43101
2001 09 19.37518 03 13 10.16 +24 54 13.5   699 – Lowell Observatory-LONEOS MPS 43101
2001 09 19.40504 03 13 09.90 +24 54 14.8   699 – Lowell Observatory-LONEOS MPS 43101
2001 09 19.43502 03 13 09.85 +24 54 13.0   699 – Lowell Observatory-LONEOS MPS 43101
2001 10 14.25776 03 03 53.93 +24 08 02.1 19.8   704 – Lincoln Laboratory ETS, New Mexico MPS 37486
2001 10 14.27343 03 03 53.37 +24 07 58.8 19.7   704 – Lincoln Laboratory ETS, New Mexico MPS 37486
2001 10 14.28961 03 03 52.73 +24 07 55.4 19.9   704 – Lincoln Laboratory ETS, New Mexico MPS 37486
2001 10 14.30527 03 03 52.17 +24 07 52.8 19.9   704 – Lincoln Laboratory ETS, New Mexico MPS 37486
2001 10 14.32092 03 03 51.60 +24 07 49.8 19.7   704 – Lincoln Laboratory ETS, New Mexico MPS 37486
2001 10 18.31947 03 01 19.68 +23 53 34.6 19.0   704 – Lincoln Laboratory ETS, New Mexico MPS 38962
2001 10 18.33529 03 01 18.99 +23 53 31.6 19.6   704 – Lincoln Laboratory ETS, New Mexico MPS 38962
2001 10 18.38393 03 01 16.96 +23 53 19.6 19.4   704 – Lincoln Laboratory ETS, New Mexico MPS 38962
2001 11 10.31199 02 44 05.59 +22 01 01.6 19.3   704 – Lincoln Laboratory ETS, New Mexico MPS 40164
2001 11 10.32641 02 44 04.88 +22 00 56.5 19.9   704 – Lincoln Laboratory ETS, New Mexico MPS 40164
2001 11 10.35486 02 44 03.49 +22 00 45.7 19.9   704 – Lincoln Laboratory ETS, New Mexico MPS 40164
2001 11 10.36913 02 44 02.78 +22 00 42.1 19.7   704 – Lincoln Laboratory ETS, New Mexico MPS 40164
2001 11 10.39645 02 44 01.56 +22 00 32.8 19.2   644 – Palomar Mountain/NEAT MPS 40164
2001 11 10.40696 02 44 01.06 +22 00 29.3 18.9   644 – Palomar Mountain/NEAT MPS 40164
2001 11 10.41796 02 44 00.54 +22 00 25.8 19.1   644 – Palomar Mountain/NEAT MPS 40164
2001 11 12.30315 02 42 33.84 +21 49 33.6 19.1   704 – Lincoln Laboratory ETS, New Mexico MPS 43101
2001 11 12.31737 02 42 33.18 +21 49 28.5 19.5   704 – Lincoln Laboratory ETS, New Mexico MPS 43101
2001 11 12.33155 02 42 32.51 +21 49 23.6 19.1   704 – Lincoln Laboratory ETS, New Mexico MPS 43101
2001 11 12.34578 02 42 31.84 +21 49 17.5 19.3   704 – Lincoln Laboratory ETS, New Mexico MPS 43101
2001 12 10.21183 02 25 49.51 +19 12 21.6 19.5   704 – Lincoln Laboratory ETS, New Mexico MPS 43101
2001 12 10.22731 02 25 49.06 +19 12 18.0 20.0   704 – Lincoln Laboratory ETS, New Mexico MPS 43101
2001 12 10.24269 02 25 48.85 +19 12 12.7 19.8   704 – Lincoln Laboratory ETS, New Mexico MPS 43101
2001 12 10.25806 02 25 48.35 +19 12 08.0 20.1   704 – Lincoln Laboratory ETS, New Mexico MPS 43101
2001 12 15.14273 02 24 14.01 +18 49 17.4 19.4   704 – Lincoln Laboratory ETS, New Mexico MPS 43101
2001 12 15.15782 02 24 13.74 +18 49 13.1 19.4   704 – Lincoln Laboratory ETS, New Mexico MPS 43101
2001 12 15.17291 02 24 13.46 +18 49 09.4 19.7   704 – Lincoln Laboratory ETS, New Mexico MPS 43101
2001 12 15.19265 02 24 13.10 +18 49 03.7 19.8   704 – Lincoln Laboratory ETS, New Mexico MPS 43101
2001 12 15.20776 02 24 12.85 +18 49 00.4 20.1   704 – Lincoln Laboratory ETS, New Mexico MPS 43101
2001 12 18.07628 02 23 31.38 +18 36 41.9 19.5   704 – Lincoln Laboratory ETS, New Mexico MPS 43101
2001 12 18.09139 02 23 31.19 +18 36 37.9 19.5   704 – Lincoln Laboratory ETS, New Mexico MPS 43101
2001 12 18.12160 02 23 30.75 +18 36 30.7 20.3   704 – Lincoln Laboratory ETS, New Mexico MPS 43101
2001 12 18.13691 02 23 30.56 +18 36 26.6 20.2   704 – Lincoln Laboratory ETS, New Mexico MPS 43101
2003 01 01.36170 07 13 56.61 +13 39 35.0 19.3   704 – Lincoln Laboratory ETS, New Mexico MPS 69557
2003 01 01.37697 07 13 55.85 +13 39 35.8 19.2   704 – Lincoln Laboratory ETS, New Mexico MPS 69557
2003 01 01.39246 07 13 55.04 +13 39 34.4 19.0   704 – Lincoln Laboratory ETS, New Mexico MPS 69557
2003 01 01.40784 07 13 54.31 +13 39 34.1 19.2   704 – Lincoln Laboratory ETS, New Mexico MPS 69557
2003 01 07.32204 07 08 59.46 +13 36 29.0 19.8   704 – Lincoln Laboratory ETS, New Mexico MPS 69557
2003 01 07.33740 07 08 58.74 +13 36 29.8 19.5   704 – Lincoln Laboratory ETS, New Mexico MPS 69557
2003 01 07.35236 07 08 58.02 +13 36 29.4 19.3   704 – Lincoln Laboratory ETS, New Mexico MPS 69557
2003 01 07.36985 07 08 57.11 +13 36 28.1 19.7   704 – Lincoln Laboratory ETS, New Mexico MPS 69557
2004 02 18.41681 11 44 20.17 -13 26 52.1 19.3 V 703 – Catalina Sky Survey MPS 98565
2004 02 18.42710 11 44 19.80 -13 26 51.0 18.9 V 703 – Catalina Sky Survey MPS 98565
2004 02 18.43729 11 44 19.48 -13 26 50.9 19.2 V 703 – Catalina Sky Survey MPS 98565
2004 02 18.44759 11 44 19.15 -13 26 49.0 18.9 V 703 – Catalina Sky Survey MPS 98565
2004 03 17.29031 11 25 48.34 -11 55 32.4 19.3   704 – Lincoln Laboratory ETS, New Mexico MPS 100992
2004 03 17.30321 11 25 47.68 -11 55 27.5 19.1   704 – Lincoln Laboratory ETS, New Mexico MPS 100992
2004 03 17.31546 11 25 47.23 -11 55 22.5 20.0   704 – Lincoln Laboratory ETS, New Mexico MPS 100992
2004 03 17.32709 11 25 46.61 -11 55 19.2 19.1   704 – Lincoln Laboratory ETS, New Mexico MPS 100992
2004 03 17.33982 11 25 46.09 -11 55 16.1 19.1   704 – Lincoln Laboratory ETS, New Mexico MPS 100992
2004 03 29.28019 11 17 32.72 -10 44 03.1 19.2 V 703 – Catalina Sky Survey MPS 110193
